Regional Weather Roundup
Issued by NWS

Home | Current Version | Previous Version | Graphics & Text | Print | Product List | Glossary On
Versions: 1 2 3 4 5 6 7 8 9 10 11 12 13 14 15 16 17 18 19 20 21 22 23 24 25 26 27 28 29 30 31 32 33 34 35 36 37 38 39 40 41 42 43 44 45 46 47 48 49 50
090
ASUS43 KBIS 010502
RWRND

NORTH DAKOTA REGIONAL WEATHER ROUNDUP
NATIONAL WEATHER SERVICE BISMARCK ND
1200 AM CDT SUN MAY 01 2016

NOTE: "FAIR" INDICATES FEW OR NO CLOUDS BELOW 12,000 FEET WITH NO
SIGNIFICANT WEATHER AND/OR OBSTRUCTIONS TO VISIBILITY.


NDZ001>003-009>011-017-010600-
NORTHWEST NORTH DAKOTA

CITY           SKY/WX    TMP DP  RH WIND       PRES   REMARKS
WILLISTON      CLEAR     41  30  65 N5        30.31R
MINOT          CLEAR     43  27  53 N7        30.30R
MINOT AFB      CLEAR     45  29  55 N8        30.30R
$$

NDZ018>021-031>035-040>046-010600-
SOUTHWEST NORTH DAKOTA

CITY           SKY/WX    TMP DP  RH WIND       PRES   REMARKS
BISMARCK       CLEAR     39  31  72 E5        30.27R
DICKINSON      CLEAR     43  26  51 NE5       30.27S
GARRISON         N/A     38  29  70 N7        30.29R
HETTINGER ARPT CLEAR     32  26  78 CALM      30.28R
$$

NDZ004>008-012>016-024-026-027-054-010600-
NORTHEAST NORTH DAKOTA

CITY           SKY/WX    TMP DP  RH WIND       PRES   REMARKS
GRAND FORKS    CLEAR     48  28  46 NE9       30.25S
GRND FRKS AFB  CLEAR     45  26  46 E7        30.26R
DEVILS LAKE    CLEAR     42  30  62 NE5       30.29R
$$

NDZ022-023-025-028>030-036>039-047>053-010600-
SOUTHEAST NORTH DAKOTA

CITY           SKY/WX    TMP DP  RH WIND       PRES   REMARKS
FARGO          CLEAR     49  28  44 NE13      30.20S
JAMESTOWN      CLEAR     40  28  62 NE9       30.23R
$$





USA.gov is the U.S. government's official web portal to all federal, state and local government web resources and services.